When you browse on this site, cookies collect data to enhance your experience and personalize the content and advertising you see.
Visit our Privacy Policy to learn more. By continuing to use the site, you agree to this use of cookies and data.
  • In Hungary
  • List of Countries
  • For 7 days
  • Water Temperature
  • Satellite Maps
  • Weather Map
  • News
  • Weather Widgets
  • user-avatar
    Login

    Hourly Weather Karjat

    Today, 21 April, Sunday

    Time Temperature Precipitation Wind Pressure Humidity
    00:00 +29°C° 0 mm 1 mps 747 mmHg 53%
    01:00 +29°C° 0 mm 1 mps 746 mmHg 55%
    02:00 +28°C° 0 mm 1 mps 746 mmHg 58%
    03:00 +28°C° 0 mm 1 mps 746 mmHg 60%
    04:00 +27°C° 0 mm 1 mps 746 mmHg 62%
    05:00 +27°C° 0 mm 1 mps 746 mmHg 69%
    06:00 +28°C° 0 mm 1 mps 747 mmHg 60%
    07:00 +30°C° 0 mm 1 mps 747 mmHg 51%
    08:00 +32°C° 0 mm 1 mps 747 mmHg 42%
    09:00 +34°C° 0 mm 1 mps 747 mmHg 36%
    10:00 +37°C° 0 mm 2 mps 747 mmHg 29%
    11:00 +39°C° 0 mm 3 mps 747 mmHg 23%
    12:00 +39°C° 0 mm 3 mps 747 mmHg 22%
    13:00 +41°C° 0 mm 4 mps 746 mmHg 21%
    14:00 +42°C° 0 mm 4 mps 745 mmHg 20%
    15:00 +41°C° 0 mm 4 mps 745 mmHg 22%
    16:00 +41°C° 0 mm 4 mps 745 mmHg 23%
    17:00 +40°C° 0 mm 4 mps 745 mmHg 24%
    18:00 +37°C° 0 mm 3 mps 745 mmHg 30%
    19:00 +35°C° 0 mm 2 mps 745 mmHg 35%
    20:00 +32°C° 0 mm 1 mps 746 mmHg 41%
    21:00 +31°C° 0 mm 1 mps 746 mmHg 44%
    22:00 +31°C° 0 mm 1 mps 746 mmHg 47%
    23:00 +30°C° 0 mm 1 mps 747 mmHg 50%

    Tomorrow, 22 April, Monday

    Time Temperature Precipitation Wind Pressure Humidity
    00:00 +29°C° 0 mm 1 mps 746 mmHg 54%
    01:00 +28°C° 0 mm 1 mps 746 mmHg 57%
    02:00 +28°C° 0 mm 1 mps 746 mmHg 61%
    03:00 +27°C° 0 mm 1 mps 746 mmHg 62%
    04:00 +27°C° 0 mm 1 mps 746 mmHg 63%
    05:00 +27°C° 0 mm 1 mps 746 mmHg 64%
    06:00 +28°C° 0 mm 1 mps 747 mmHg 54%
    07:00 +30°C° 0 mm 1 mps 747 mmHg 44%
    08:00 +32°C° 0 mm 1 mps 748 mmHg 34%
    09:00 +35°C° 0 mm 2 mps 748 mmHg 28%
    10:00 +38°C° 0 mm 3 mps 748 mmHg 22%
    11:00 +40°C° 0 mm 3 mps 748 mmHg 16%
    12:00 +42°C° 0 mm 3 mps 747 mmHg 14%
    13:00 +43°C° 0 mm 3 mps 747 mmHg 13%
    14:00 +44°C° 0 mm 3 mps 746 mmHg 12%
    15:00 +43°C° 0 mm 4 mps 746 mmHg 13%
    16:00 +42°C° 0 mm 4 mps 745 mmHg 15%
    17:00 +42°C° 0 mm 5 mps 745 mmHg 16%
    18:00 +40°C° 0 mm 4 mps 745 mmHg 21%
    19:00 +36°C° 0 mm 2 mps 746 mmHg 26%
    20:00 +33°C° 0 mm 1 mps 746 mmHg 31%
    21:00 +33°C° 0 mm 1 mps 747 mmHg 32%
    22:00 +32°C° 0 mm 1 mps 747 mmHg 34%
    23:00 +31°C° 0 mm 1 mps 747 mmHg 35%

    Day after tomorrow, 23 April, Tuesday

    Time Temperature Precipitation Wind Pressure Humidity
    00:00 +31°C° 0 mm 1 mps 747 mmHg 38%
    01:00 +30°C° 0 mm 1 mps 747 mmHg 40%
    02:00 +29°C° 0 mm 1 mps 746 mmHg 42%
    03:00 +29°C° 0 mm 1 mps 746 mmHg 44%
    04:00 +29°C° 0 mm 1 mps 746 mmHg 46%
    05:00 +28°C° 0 mm 1 mps 746 mmHg 47%
    06:00 +30°C° 0 mm 1 mps 747 mmHg 41%
    07:00 +32°C° 0 mm 1 mps 747 mmHg 35%
    08:00 +33°C° 0 mm 1 mps 748 mmHg 29%
    09:00 +37°C° 0 mm 2 mps 748 mmHg 26%
    10:00 +39°C° 0 mm 2 mps 748 mmHg 22%
    11:00 +42°C° 0 mm 3 mps 748 mmHg 18%
    12:00 +44°C° 0 mm 3 mps 747 mmHg 17%
    13:00 +45°C° 0 mm 3 mps 747 mmHg 15%
    14:00 +47°C° 0 mm 4 mps 746 mmHg 13%
    15:00 +44°C° 0 mm 4 mps 746 mmHg 18%
    16:00 +43°C° 0 mm 5 mps 745 mmHg 22%
    17:00 +41°C° 0 mm 5 mps 745 mmHg 26%
    18:00 +38°C° 0 mm 4 mps 746 mmHg 32%
    19:00 +36°C° 0 mm 3 mps 746 mmHg 37%
    20:00 +33°C° 0 mm 1 mps 747 mmHg 43%
    21:00 +33°C° 0 mm 1 mps 747 mmHg 46%
    22:00 +32°C° 0 mm 1 mps 748 mmHg 50%
    23:00 +31°C° 0 mm 1 mps 748 mmHg 53%

    24 April, Wednesday

    Time Temperature Precipitation Wind Pressure Humidity
    00:00 +31°C° 0 mm 1 mps 748 mmHg 55%
    01:00 +30°C° 0 mm 1 mps 747 mmHg 57%
    02:00 +28°C° 0 mm 0 mps 747 mmHg 59%
    03:00 +27°C° 0 mm 0 mps 747 mmHg 60%
    04:00 +27°C° 0 mm 0 mps 747 mmHg 61%
    05:00 +27°C° 0 mm 0 mps 747 mmHg 62%
    06:00 +30°C° 0 mm 1 mps 748 mmHg 55%
    07:00 +32°C° 0 mm 1 mps 748 mmHg 48%
    08:00 +33°C° 0 mm 1 mps 749 mmHg 42%
    09:00 +37°C° 0 mm 2 mps 749 mmHg 35%
    10:00 +39°C° 0 mm 3 mps 749 mmHg 29%
    11:00 +43°C° 0 mm 3 mps 749 mmHg 22%
    12:00 +44°C° 0 mm 4 mps 748 mmHg 20%
    13:00 +45°C° 0 mm 4 mps 747 mmHg 19%
    14:00 +47°C° 0 mm 5 mps 746 mmHg 17%
    15:00 +46°C° 0 mm 5 mps 746 mmHg 21%
    16:00 +43°C° 0 mm 5 mps 745 mmHg 24%
    17:00 +42°C° 0 mm 5 mps 745 mmHg 28%
    18:00 +40°C° 0 mm 4 mps 746 mmHg 31%
    19:00 +37°C° 0 mm 3 mps 746 mmHg 35%
    20:00 +35°C° 0 mm 1 mps 747 mmHg 38%
    21:00 +34°C° 0 mm 1 mps 747 mmHg 40%
    22:00 +33°C° 0 mm 1 mps 747 mmHg 43%
    23:00 +32°C° 0 mm 1 mps 747 mmHg 45%

    25 April, Thursday

    Time Temperature Precipitation Wind Pressure Humidity
    00:00 +32°C° 0 mm 1 mps 747 mmHg 48%
    01:00 +31°C° 0 mm 1 mps 747 mmHg 50%
    02:00 +28°C° 0 mm 0 mps 746 mmHg 53%
    03:00 +28°C° 0 mm 0 mps 747 mmHg 54%
    04:00 +27°C° 0 mm 0 mps 747 mmHg 55%
    05:00 +27°C° 0 mm 0 mps 747 mmHg 56%
    06:00 +29°C° 0 mm 0 mps 748 mmHg 51%
    07:00 +32°C° 0 mm 1 mps 748 mmHg 47%
    08:00 +34°C° 0 mm 1 mps 749 mmHg 42%
    09:00 +37°C° 0 mm 2 mps 749 mmHg 35%
    10:00 +39°C° 0 mm 2 mps 749 mmHg 28%
    11:00 +43°C° 0 mm 3 mps 748 mmHg 22%
    12:00 +44°C° 0 mm 4 mps 748 mmHg 20%
    13:00 +45°C° 0 mm 4 mps 747 mmHg 18%
    14:00 +48°C° 0 mm 4 mps 746 mmHg 15%
    15:00 +46°C° 0 mm 5 mps 746 mmHg 17%
    16:00 +45°C° 0 mm 5 mps 745 mmHg 18%
    17:00 +44°C° 0 mm 6 mps 745 mmHg 19%
    18:00 +42°C° 0 mm 5 mps 746 mmHg 20%
    19:00 +39°C° 0 mm 3 mps 746 mmHg 20%
    20:00 +37°C° 0 mm 2 mps 747 mmHg 21%
    21:00 +37°C° 0 mm 2 mps 747 mmHg 23%
    22:00 +36°C° 0 mm 2 mps 747 mmHg 24%
    23:00 +34°C° 0 mm 1 mps 747 mmHg 26%

    26 April, Friday

    Time Temperature Precipitation Wind Pressure Humidity
    00:00 +33°C° 0 mm 1 mps 746 mmHg 31%
    01:00 +32°C° 0 mm 1 mps 746 mmHg 36%
    02:00 +31°C° 0 mm 1 mps 745 mmHg 40%
    03:00 +31°C° 0 mm 1 mps 745 mmHg 42%
    04:00 +28°C° 0 mm 0 mps 745 mmHg 43%
    05:00 +28°C° 0 mm 0 mps 746 mmHg 44%
    06:00 +30°C° 0 mm 0 mps 746 mmHg 39%
    07:00 +31°C° 0 mm 0 mps 747 mmHg 35%
    08:00 +33°C° 0 mm 0 mps 748 mmHg 30%
    09:00 +39°C° 0 mm 1 mps 748 mmHg 26%
    10:00 +41°C° 0 mm 2 mps 748 mmHg 21%
    11:00 +45°C° 0 mm 3 mps 748 mmHg 16%
    12:00 +47°C° 0 mm 4 mps 747 mmHg 15%
    13:00 +48°C° 0 mm 4 mps 746 mmHg 14%
    14:00 +49°C° 0 mm 5 mps 745 mmHg 13%
    15:00 +48°C° 0 mm 5 mps 745 mmHg 15%
    16:00 +46°C° 0 mm 5 mps 745 mmHg 17%
    17:00 +45°C° 0 mm 6 mps 744 mmHg 19%
    18:00 +42°C° 0 mm 4 mps 745 mmHg 21%
    19:00 +40°C° 0 mm 3 mps 746 mmHg 23%
    20:00 +38°C° 0 mm 2 mps 746 mmHg 24%
    21:00 +37°C° 0 mm 2 mps 746 mmHg 29%
    22:00 +36°C° 0 mm 2 mps 746 mmHg 33%
    23:00 +33°C° 0 mm 1 mps 746 mmHg 38%
    Show more